Погода в Чиклана-де-ла-Фронтере

Испания     36°25′21″N   6°08′40″W
темп.,
°C
ветер,
м/с
пор.,
м/с
влажн.,
%
обл.,
%
осадки,
мм/ч
давл.,
гПа
погр.,
м
25 февраля, чт
чт2501:00+14вюв12207922 0.0 1025557
04:00+14юв111881100 0.0 1024594
07:00+14вюв91684100 0.0 1025704
10:00+15вюв81382100 0.0 1026740
13:00+17юв71079100 0.1 1025840
16:00+17юв6979100 0.5 1024704
19:00+15вюв81383100 0.6 1023463
22:00+14вюв81385100 0.0 1024530
26 февраля, пт
пт2601:00+14вюв61284100 0.1 1024801
04:00+13в4889100 1.4 1023514
07:00+13в71387100 2.2 1023612
10:00+14вюв81382100 0.3 1024755
13:00+16юв81277100 1.4 1024961
16:00+17вюв71175100 0.1 1023853
19:00+15юв81275100 0.1 1023469
22:00+14вюв71072100 0.0 1024341
27 февраля, сб
сб2701:00+12в61282100 0.0 1024525
04:00+12всв51077100 0.0 1023544
07:00+12всв4880100 0.0 1022462
10:00+14всв51173100 0.0 1022867
13:00+16вюв7966100 0.0 1022856
16:00+16вюв91168100 0.0 1020732
19:00+14вюв81274100 0.0 1019390
22:00+13вюв7127699 0.0 1020488
28 февраля, вс
вс2801:00+11в6138564 0.0 1019552
04:00+11всв6138377 0.0 1018587
07:00+11всв5107989 0.0 1018533
10:00+14в71478100 0.0 1018948
13:00+16вюв101573100 0.0 10171242
16:00+16вюв81271100 0.0 10151061
19:00+14в71477100 0.0 1014951
22:00+13в71678100 0.0 1016878
1 марта, пн
пн101:00+13в81784100 0.2 1016865
04:00+13в7158266 0.0 1015825
07:00+12св467883 0.0 1015262
10:00+14в6127993 0.3 1016900
13:00+17вюв8117096 0.6 10161035
16:00+17вюв8116892 0.0 1015839
19:00+15вюв6127696 0.0 1016704
22:00+14вюв7117638 0.0 1018293